GLOBALSTAR M023 [-]

Last updated on Nov. 22, 2019, 4:19 a.m. UTC

1 25621U 99004A   19324.96934073 -.00000085  00000-0  10203-3 0  9991
2 25621  52.0085 129.8271 0009238 314.8806 215.0961 12.62380386958768
UTC
Height (km)
Latitude
Longitude
Inclination
Orbital Period
UTC large
Height (km)
Speed (km/s)
/
Latitude / Longitude
Inclination (degrees)
Orbital Period (minutes)
Azimuth
Elevation
Range (km)
Doppler Factor
iOS Compass Heading
iOS Angle